Theta_e
342 342 341 342 342 342 348 345 341 339 342 341 341 339 340 339 342 339 342 337 337 336 335 336 341 338 336 332 331 332 332 335 335 332 330 329 329 331 333 333 332 332 332 331 332 332 331 329 329 329 328 327 328 327 327 327 327 325 325 324 324 324 322 323 323 323 321 321 322 321 322 321 320 320 319 319 319 320 320 318 319 320 321 321 321
346 343 341 343 344 347 345 345 348 347 342 341 342 345 346 344 344 342 337 339 337 338 338 336 336 338 337 336 332 331 333 332 331 331 330 330 330 331 335 334 334 333 334 333 331 330 330 331 331 330 329 329 327 328 326 327 328 327 325 325 325 324 322 323 323 323 323 322 322 322 321 321 321 321 321 321 320 318 320 320 319 318 318 319 319
349 350 344 343 343 344 344 343 344 345 349 349 351 345 347 345 348 347 345 344 337 337 340 338 338 338 339 336 334 333 331 332 332 333 331 331 330 330 332 334 334 333 333 332 331 331 331 330 329 330 330 328 330 329 329 329 329 329 326 326 326 325 324 324 324 324 323 323 322 322 322 322 322 321 320 319 321 321 319 319 320 320 320 319 318
353 345 351 344 344 345 352 350 347 348 346 346 347 348 346 341 341 344 346 346 346 343 338 339 336 335 339 336 338 339 337 340 333 335 333 332 331 330 329 330 334 334 333 332 331 331 332 332 331 330 330 331 329 330 331 331 330 330 329 327 327 326 325 325 324 324 324 324 323 323 323 322 322 322 320 321 321 319 320 321 320 319 320 320 321
355 348 348 348 349 350 349 349 350 350 346 349 346 347 347 349 348 346 346 342 344 346 340 339 337 337 336 337 339 337 341 338 337 337 333 333 332 331 330 331 331 335 333 333 332 332 332 333 333 332 332 331 330 329 329 329 330 330 331 329 328 328 327 326 325 324 325 324 323 323 323 323 323 323 322 322 322 321 320 321 321 321 320 319 319
350 352 350 349 350 348 347 347 349 350 342 343 345 347 346 345 346 343 344 342 341 340 342 342 339 337 338 337 337 339 339 338 338 338 339 336 335 333 332 331 331 330 331 334 334 333 333 333 333 333 333 333 333 332 330 330 330 331 332 332 330 329 328 327 326 326 325 325 324 324 324 323 323 324 323 323 323 323 322 322 320 320 320 321 320
351 349 348 352 348 351 347 348 349 351 346 347 351 347 347 347 345 345 347 347 341 339 340 340 338 335 336 338 336 338 341 338 337 337 338 339 341 338 336 333 332 330 331 330 335 335 335 335 335 334 334 335 334 333 332 332 333 332 333 334 332 331 330 328 327 327 327 326 326 325 325 325 324 324 324 324 324 323 323 322 322 322 321 321 321
351 353 355 348 347 346 352 352 350 352 351 352 352 343 344 345 347 347 342 337 339 342 341 338 342 336 339 343 340 340 338 338 337 337 338 338 336 340 339 338 334 332 335 330 331 334 337 337 337 338 337 336 334 334 334 334 334 334 334 335 334 332 331 330 329 328 328 327 327 327 326 326 325 325 325 325 325 325 324 323 323 322 323 323 322
351 350 354 350 348 347 346 349 353 352 350 352 350 349 345 341 345 344 346 342 337 339 342 340 337 340 341 338 339 340 339 338 339 340 338 339 338 338 338 338 339 345 337 332 332 332 337 338 338 338 338 337 336 335 335 335 335 335 335 335 335 334 333 331 330 330 329 329 328 328 328 327 327 326 326 326 326 326 325 325 324 324 323 323 323
348 349 354 350 348 346 348 349 349 350 351 349 346 343 345 345 344 345 346 342 341 340 340 338 339 339 339 340 341 342 342 344 342 342 339 338 338 337 337 338 338 336 337 337 333 333 333 337 339 338 338 338 338 337 336 336 336 337 336 336 336 336 335 333 332 331 330 330 329 329 329 329 328 328 327 327 327 327 326 326 325 324 324 324 323
347 345 348 351 349 349 346 348 349 346 348 346 346 340 339 339 342 344 347 343 345 341 341 342 339 342 341 341 343 342 346 345 344 339 340 338 338 339 339 339 339 338 338 339 339 338 334 334 335 335 335 339 339 339 338 338 337 338 338 337 336 336 336 336 334 332 331 331 331 330 330 330 329 329 329 329 328 328 328 327 327 326 325 324 324
343 347 347 348 349 349 347 344 347 347 344 343 342 338 338 338 341 339 341 342 343 343 343 341 339 339 343 344 344 346 344 345 343 343 345 344 340 339 337 339 339 340 340 339 340 340 339 334 334 332 333 336 339 339 339 339 339 339 340 339 339 338 337 337 336 334 333 332 332 332 331 331 331 330 330 330 330 329 329 328 327 328 326 325 325
343 343 345 347 349 350 346 345 344 342 341 340 338 336 338 338 339 338 339 339 340 341 340 340 339 341 340 340 340 344 345 344 343 343 340 342 345 343 343 341 340 341 340 340 341 340 341 337 334 334 334 334 336 339 338 339 339 339 340 340 341 340 339 337 338 337 336 334 334 333 333 332 332 331 331 331 331 330 330 329 329 328 328 327 326
344 344 345 345 347 348 347 344 343 342 340 338 338 338 336 338 338 335 337 334 336 341 341 338 340 333 334 338 338 346 344 343 340 341 345 341 342 344 344 342 340 340 341 343 341 341 340 340 338 337 337 338 336 334 334 336 337 338 339 340 340 341 341 340 339 339 338 337 335 334 334 333 333 333 332 332 332 331 331 330 330 329 329 329 328
342 346 345 345 344 346 347 345 343 342 339 339 339 339 338 337 336 335 332 334 335 335 335 338 335 335 336 334 328 331 334 336 341 344 344 344 345 342 343 340 337 339 340 340 339 339 340 340 341 341 341 341 339 335 333 335 334 336 338 340 340 341 341 341 341 340 340 339 337 335 335 335 335 334 334 334 333 332 332 331 331 330 330 329 330
339 338 344 345 341 341 346 345 342 342 341 340 340 339 338 337 336 336 335 331 332 332 334 332 336 338 327 326 330 327 325 327 333 345 343 343 341 338 339 339 339 341 340 340 339 340 340 341 340 341 341 341 341 339 335 334 335 337 337 338 339 340 341 341 341 341 341 340 338 337 336 336 336 336 335 335 334 334 333 332 332 332 331 330 331
341 338 343 340 339 340 345 345 344 342 343 341 340 339 339 339 338 335 335 333 331 334 335 334 336 340 335 330 329 324 322 332 334 334 339 338 336 335 336 337 337 345 347 347 344 344 343 343 342 342 344 343 344 343 340 337 336 337 336 338 339 340 340 341 341 341 341 341 341 340 339 338 338 338 337 336 336 335 334 334 333 333 332 332 332
342 339 334 341 340 342 346 344 343 342 341 341 341 341 339 338 339 338 338 336 332 331 331 334 334 338 339 338 340 329 329 333 329 325 338 342 340 337 337 340 339 339 343 343 341 341 343 343 346 346 346 345 344 346 345 346 345 338 338 336 340 340 341 341 342 342 342 341 341 341 341 341 340 339 338 338 337 336 335 335 334 334 333 333 333
342 341 341 339 340 341 344 345 343 342 342 341 339 339 339 339 341 338 338 337 336 330 331 333 333 333 335 338 339 340 333 330 327 331 326 335 340 340 340 340 341 340 339 340 341 339 341 345 346 346 346 347 347 347 346 347 345 345 343 343 341 340 342 342 343 343 342 342 342 342 342 341 341 340 340 339 338 338 337 337 335 334 334 333 333
343 341 340 339 343 345 345 345 344 343 342 340 339 339 340 341 340 340 340 338 336 333 332 334 330 330 335 337 337 338 333 333 334 327 330 326 330 338 343 338 340 339 340 341 341 338 342 343 344 343 347 348 347 348 346 347 346 343 342 344 343 342 343 343 343 343 343 342 342 341 341 341 341 340 340 340 340 339 337 336 335 335 335 334 334
343 342 341 339 340 343 345 345 344 343 342 342 342 340 339 340 338 338 339 338 337 336 334 332 332 331 331 335 336 336 332 332 334 334 332 327 327 330 332 337 338 337 337 341 343 343 343 345 346 343 346 344 344 348 349 345 349 349 343 344 344 344 345 344 344 343 343 343 342 342 341 341 341 340 340 340 341 340 338 338 337 336 335 335 334
343 343 342 340 339 340 343 344 344 344 342 341 342 341 341 341 340 339 340 338 339 337 334 334 334 333 332 336 334 334 333 337 338 336 332 333 326 329 330 329 327 335 341 339 338 341 344 343 343 340 341 340 341 342 342 347 349 341 338 340 344 345 344 344 343 342 342 342 342 341 341 341 340 341 341 341 341 341 340 339 338 337 336 335 334
342 343 343 342 341 340 340 340 343 344 344 343 342 342 342 342 342 343 341 340 338 337 335 335 335 333 334 333 335 335 334 335 336 336 334 329 331 330 331 331 329 329 334 339 342 344 346 341 338 342 342 341 343 344 346 344 338 336 333 335 341 343 344 342 341 341 340 341 340 340 340 340 341 341 341 341 342 342 341 340 339 338 336 336 336
341 341 342 342 342 342 342 341 341 343 341 343 344 344 344 344 343 341 340 340 340 338 335 333 334 333 333 335 337 339 339 337 337 336 336 333 333 331 328 330 330 329 332 340 344 340 339 339 343 340 342 346 343 343 346 343 336 331 333 331 335 340 342 341 340 340 340 341 341 341 340 341 341 341 341 341 342 342 342 340 339 338 338 337 337
340 339 340 341 341 341 343 342 340 343 343 343 343 344 344 344 343 341 340 339 337 335 334 333 334 332 332 337 340 340 337 338 340 338 338 339 337 331 330 328 327 327 331 340 340 339 338 342 340 342 344 345 344 346 344 343 339 332 329 331 331 335 340 340 340 339 340 340 340 341 341 341 341 342 342 342 342 342 340 339 339 339 339 340 340
339 339 341 341 341 342 343 343 342 342 344 343 343 343 344 342 342 341 341 340 339 337 335 335 335 334 335 336 337 336 338 340 340 341 339 337 334 331 331 329 328 328 336 335 338 335 336 343 340 342 342 340 341 346 347 343 339 330 328 337 331 331 333 337 338 338 338 338 338 338 339 340 341 341 341 339 338 338 338 338 339 339 340 341 341
339 342 342 340 340 341 341 341 342 342 343 343 344 344 344 342 341 341 340 340 339 338 336 335 334 334 335 335 338 340 339 339 340 340 341 339 338 335 332 329 331 331 332 331 333 334 337 337 340 339 340 342 344 347 346 341 338 333 328 342 334 326 328 331 334 336 337 337 337 336 336 336 336 337 337 337 337 338 339 339 339 340 340 341 341
342 340 342 341 339 339 339 340 340 342 342 341 341 342 341 341 340 340 339 340 337 337 335 334 334 334 334 337 337 336 339 340 341 342 341 342 341 341 339 332 327 324 329 327 327 329 338 335 338 339 339 342 344 345 340 338 340 332 329 339 334 329 324 325 327 331 334 335 337 337 337 336 335 335 335 335 336 337 337 337 337 337 337 336 334
339 340 341 340 339 339 338 339 339 340 340 339 339 340 338 338 338 338 337 339 337 336 336 334 334 334 334 336 337 337 338 342 340 339 343 342 342 342 340 337 334 329 326 325 328 330 331 338 333 342 340 341 342 344 342 341 335 335 342 342 339 334 321 320 323 327 330 329 332 335 337 336 336 335 334 335 335 335 334 332 332 332 331 329 327
339 341 340 340 340 338 337 337 337 336 336 337 336 337 337 336 336 337 336 337 337 336 336 335 334 334 335 336 337 337 339 339 338 340 341 343 343 341 340 338 338 332 330 327 328 333 334 338 338 336 340 338 341 345 340 340 331 334 340 343 338 331 317 318 319 321 321 319 320 324 329 333 334 334 333 333 333 332 331 330 329 328 327 324 321
338 337 339 338 339 339 337 336 335 335 334 335 336 336 335 333 333 335 336 336 335 334 335 334 334 334 333 334 336 336 338 338 338 340 342 342 342 342 341 341 340 337 334 333 324 332 334 330 335 338 339 339 337 341 338 342 337 336 341 342 335 322 320 320 318 317 316 315 316 318 323 327 329 331 330 330 330 328 327 325 324 322 320 318 316
338 339 337 337 338 337 338 336 334 335 334 335 335 335 336 333 333 333 335 336 334 333 333 334 334 333 333 333 334 335 337 337 338 340 342 343 342 341 340 340 339 340 337 333 329 329 338 337 337 337 336 338 340 339 338 337 336 329 340 339 328 322 327 323 317 315 314 312 313 313 314 319 323 326 326 325 325 323 322 320 318 316 316 315 314
336 336 336 334 335 336 337 335 333 332 333 332 333 335 334 333 332 332 333 336 335 334 333 333 333 332 332 333 333 335 337 336 336 341 342 341 342 342 341 339 339 339 338 334 330 330 338 343 340 334 338 340 337 338 336 339 339 339 332 337 330 332 329 326 322 313 312 312 312 311 311 313 315 320 322 321 317 315 314 312 310 313 314 313 312
336 333 332 335 336 335 334 335 334 333 332 332 332 333 334 334 334 335 335 336 334 333 332 331 331 332 331 331 333 333 335 334 335 339 341 341 340 339 340 339 337 337 340 336 333 329 327 332 333 336 340 337 334 337 337 335 335 335 333 337 338 339 330 326 324 320 311 312 311 311 311 311 311 311 314 316 311 306 306 306 307 308 308 309 309
334 333 334 334 332 332 333 334 334 334 334 332 333 332 331 331 332 333 334 334 334 333 331 330 330 330 330 331 331 332 335 333 334 338 340 339 339 336 334 336 335 339 341 338 334 329 329 330 336 333 335 337 334 334 335 335 335 336 331 328 326 328 334 329 326 323 311 312 312 312 312 311 311 311 310 310 308 307 307 306 306 305 305 306 305
331 336 333 331 333 333 333 332 333 333 333 336 333 331 331 329 329 330 332 333 334 334 333 331 331 330 329 330 331 332 333 333 334 338 341 340 339 338 338 337 339 337 339 337 338 333 332 330 332 332 335 333 336 338 338 336 335 330 330 329 327 326 328 328 326 324 315 311 312 312 312 311 311 310 310 309 307 307 306 306 305 305 305 304 304
328 329 330 330 330 330 331 331 332 332 333 333 333 331 331 331 329 327 329 331 331 331 332 333 334 331 330 329 331 331 332 334 337 339 340 337 338 338 338 337 339 340 337 337 336 334 332 327 329 332 333 334 334 334 332 331 332 329 328 324 323 323 324 324 327 325 314 310 311 312 311 312 311 310 309 308 306 306 306 306 305 305 304 304 304
326 328 327 327 327 326 326 326 328 329 331 332 333 332 331 331 329 330 330 329 329 329 331 333 333 332 331 329 331 334 331 333 333 337 338 338 335 338 337 338 336 336 334 334 334 331 330 329 326 326 331 331 331 335 333 328 327 327 324 322 323 324 324 323 324 326 325 323 323 320 311 310 309 309 309 308 306 305 305 305 305 305 305 304 303
324 324 324 323 324 325 325 325 323 323 324 326 330 331 331 330 330 329 329 329 330 332 331 331 332 332 332 333 331 333 332 331 331 329 330 330 334 336 336 336 335 333 330 330 331 331 329 328 328 331 329 331 331 331 329 331 327 320 319 318 319 322 324 321 322 326 322 322 318 315 319 317 313 311 307 306 306 305 305 305 305 306 306 304 303
323 322 322 322 323 323 322 321 320 320 320 322 321 318 317 320 330 332 329 329 329 330 331 331 332 332 333 333 332 334 333 332 334 335 334 332 334 332 335 335 334 332 331 331 329 329 328 327 327 327 330 327 327 329 331 322 319 318 320 319 317 317 320 323 320 319 320 318 318 322 319 317 315 311 307 307 308 307 306 306 306 306 306 304 303
324 322 321 321 320 320 319 318 317 317 318 318 317 312 310 315 322 328 331 329 330 328 327 328 331 330 330 333 332 330 330 328 325 327 327 331 332 331 334 333 331 330 330 330 330 327 327 328 328 327 325 325 323 321 319 317 315 315 319 318 317 319 318 319 318 317 316 313 314 317 319 324 319 313 313 313 311 309 310 308 307 306 305 303 302
323 322 320 320 319 318 317 316 315 315 314 313 311 304 302 308 316 323 329 333 334 330 330 330 328 328 327 324 326 325 320 318 315 310 308 309 315 327 332 332 331 330 329 328 328 327 327 325 324 325 323 319 320 320 318 318 320 318 318 316 314 317 316 317 314 314 315 311 309 310 313 321 317 313 316 316 318 318 315 312 305 303 302 301 301
323 321 320 318 318 317 316 315 313 313 312 311 302 296 297 298 311 321 327 331 332 330 330 329 327 324 322 320 319 319 316 313 310 305 304 303 304 304 305 309 318 329 330 329 328 329 327 326 325 323 322 318 319 318 316 317 316 316 315 315 317 315 313 311 312 313 315 311 305 306 305 316 312 310 310 316 315 314 315 308 304 304 302 301 301
321 321 320 318 317 317 316 314 313 312 311 307 296 296 297 296 301 316 324 327 330 331 330 330 327 322 319 318 319 319 316 314 312 310 307 304 302 302 303 304 303 301 305 319 324 324 323 323 319 319 316 314 314 315 315 314 313 316 314 315 313 312 310 310 311 309 314 312 305 304 304 310 314 311 309 314 313 318 317 304 303 303 302 301 301
322 319 318 318 316 316 314 313 313 312 309 303 295 296 297 297 297 307 322 327 328 329 330 327 324 321 320 321 321 318 318 320 318 313 311 309 306 306 309 311 310 307 300 299 304 323 324 322 317 316 317 316 313 313 315 316 317 314 314 312 310 311 310 311 310 311 311 312 306 303 301 303 306 309 307 310 311 312 312 304 304 303 301 301 300
319 318 318 316 315 314 314 313 313 312 310 303 295 295 296 296 299 307 326 327 328 327 327 326 323 321 322 320 318 318 319 318 316 316 316 314 316 320 316 313 310 309 306 304 307 309 317 320 316 313 314 315 312 312 313 315 315 313 312 311 310 310 310 311 315 313 312 313 306 305 302 299 304 307 305 305 310 309 315 306 302 303 302 301 301
318 315 315 315 315 314 313 313 312 311 310 298 294 294 295 296 300 309 321 322 321 320 323 323 323 322 321 320 319 319 318 318 319 319 320 321 320 315 310 307 304 302 301 302 307 315 315 314 311 310 308 308 307 307 308 310 311 312 314 313 313 312 311 312 312 311 308 309 309 306 300 299 304 304 304 305 308 305 306 305 301 302 301 301 301
317 318 315 316 314 313 312 312 311 309 309 297 294 294 294 294 302 316 316 317 318 318 318 318 320 320 320 321 321 320 319 315 306 301 313 321 316 312 308 306 303 301 299 298 296 300 306 304 303 301 300 302 301 302 303 305 306 308 311 311 314 312 306 306 309 307 305 306 306 303 299 297 304 302 302 305 305 302 303 306 305 303 303 302 301
316 316 314 315 314 314 313 311 309 307 308 300 293 293 294 293 305 317 316 314 314 314 316 318 319 320 320 319 319 317 313 309 301 295 304 316 314 311 309 306 305 302 300 300 296 293 293 294 294 294 294 294 295 296 296 297 302 308 311 310 304 305 304 303 304 304 303 302 301 303 299 298 302 302 302 304 302 300 303 305 305 304 303 302 302
316 315 314 314 314 312 312 310 308 306 307 303 293 293 294 293 303 317 315 314 313 313 312 313 313 315 319 320 319 313 311 308 296 295 303 313 313 311 309 306 304 302 301 302 302 301 295 294 293 293 294 295 297 297 297 299 300 306 306 302 304 304 304 303 300 302 301 300 298 302 297 297 301 302 300 301 299 302 303 301 301 303 303 303 302
317 314 313 312 311 313 312 310 308 306 306 304 295 292 293 293 301 313 316 313 312 312 312 311 311 310 309 310 313 311 310 302 295 296 302 315 313 311 310 308 306 303 303 303 302 301 302 304 305 306 304 304 311 307 305 302 303 308 306 305 304 303 301 301 302 300 301 299 299 303 297 297 299 301 298 296 295 298 301 300 301 301 301 304 302
Wind_Speed
4 4 5 4 4 4 2 2 3 5 4 6 4 4 6 7 3 3 2 3 3 4 3 3 1 2 3 5 5 5 4 2 2 8 7 6 6 8 12 11 10 9 8 8 9 11 8 7 8 7 6 7 7 7 6 7 7 6 5 5 5 4 3 4 4 2 1 1 3 0 1 1 1 0 0 1 2 3 2 3 4 4 5 5 5
4 5 5 4 3 3 3 3 3 2 6 4 4 3 3 3 2 2 2 2 3 4 3 3 2 1 1 1 6 6 4 4 5 5 7 6 5 7 14 13 12 11 11 10 8 6 7 9 10 8 8 10 6 8 7 8 8 8 7 6 6 5 5 5 3 3 4 3 2 4 2 2 3 1 1 2 2 2 3 3 3 4 4 5 5
2 0 4 4 4 5 4 4 3 2 1 0 2 3 2 3 1 2 2 1 4 4 2 4 3 2 1 2 4 6 6 4 4 4 9 7 6 6 10 14 12 11 9 8 10 7 8 8 5 7 8 6 11 10 10 10 9 9 9 7 7 6 6 6 5 5 5 4 5 4 4 4 3 5 4 4 3 2 3 3 3 4 4 5 6
2 1 1 4 3 3 1 1 0 1 2 2 2 1 2 3 4 3 1 1 1 1 5 3 3 3 2 2 2 0 2 2 4 2 8 7 7 6 6 8 13 13 11 9 8 9 9 10 10 10 7 11 7 11 12 11 10 10 10 9 9 9 7 7 7 6 6 6 6 6 5 6 5 4 5 5 5 6 4 4 4 4 4 5 6
2 3 4 2 2 1 1 2 2 2 4 1 2 2 2 1 1 2 2 4 2 1 1 4 4 3 4 3 3 3 1 1 2 1 6 7 6 6 6 6 7 11 13 11 10 10 10 9 11 8 9 9 7 7 5 5 10 10 12 12 10 10 9 9 8 8 8 7 7 7 6 7 7 6 6 6 6 5 6 6 5 5 5 6 6
2 1 1 0 2 2 2 2 2 2 6 3 2 1 2 2 0 2 2 2 2 4 2 1 3 4 3 5 4 3 3 3 1 1 0 3 7 7 7 6 6 6 7 12 12 11 12 11 8 10 9 10 10 9 8 8 8 9 12 13 13 12 11 10 10 10 9 9 8 9 8 8 8 8 8 8 8 8 7 7 6 6 7 7 7
1 1 2 2 2 1 1 2 2 2 7 5 1 2 2 1 3 0 1 1 1 2 1 2 2 3 3 4 5 4 3 3 4 4 2 2 1 3 7 7 7 6 7 6 10 13 13 13 12 11 12 11 11 10 10 11 9 9 9 15 14 13 12 12 11 11 11 11 10 10 10 9 9 9 9 9 9 8 8 8 8 8 8 8 8
1 2 1 1 2 2 2 0 1 1 2 1 1 3 1 2 1 2 0 2 2 0 4 4 2 3 3 2 4 4 5 4 4 4 4 4 4 3 3 6 8 7 8 7 7 9 16 14 14 13 11 9 10 11 11 12 11 11 9 13 14 14 13 13 13 12 12 12 11 11 11 10 10 10 10 10 10 9 9 9 9 9 9 9 10
2 2 1 2 2 2 4 2 1 1 2 2 3 4 1 1 2 3 1 2 2 1 0 4 4 2 2 3 4 3 4 5 4 3 5 4 4 4 4 3 4 8 7 8 7 7 13 16 15 15 14 12 12 13 13 12 13 12 11 13 16 15 14 14 14 13 13 13 13 13 12 12 11 11 11 10 10 10 10 10 9 10 10 10 11
1 1 0 2 2 4 1 3 2 3 3 2 5 3 3 4 2 1 2 3 2 1 1 2 2 2 3 3 4 2 3 2 4 4 4 5 4 4 5 4 4 4 5 5 8 7 7 13 16 16 15 15 14 14 14 14 15 14 13 12 13 16 15 15 15 14 14 14 14 14 13 13 13 12 12 11 11 11 10 11 10 10 10 11 11
1 1 1 2 1 1 3 3 2 3 2 2 4 4 4 4 4 3 3 3 2 2 1 3 4 2 2 3 3 3 2 3 3 5 4 4 5 5 5 5 5 6 6 5 6 8 8 7 8 7 9 15 14 15 16 16 15 16 15 14 14 14 16 16 15 15 15 15 15 14 14 14 14 13 13 13 12 12 12 11 10 10 10 11 12
2 1 1 2 1 1 2 3 3 3 2 1 6 8 7 6 7 6 5 4 3 2 2 2 4 4 2 2 2 3 3 2 3 4 2 2 4 4 5 5 5 5 6 6 6 6 7 8 7 8 7 11 17 15 16 15 15 16 17 17 16 15 15 16 16 16 16 16 16 15 15 15 14 14 14 14 13 13 13 12 12 11 11 12 12
4 4 3 2 1 1 2 2 3 4 5 3 6 8 3 1 3 5 7 6 4 3 4 3 4 2 3 3 3 3 3 2 3 3 5 6 4 3 3 4 4 4 4 5 5 6 5 8 8 7 8 7 12 18 17 17 16 16 18 17 18 17 16 15 15 16 17 17 17 16 15 15 15 15 14 14 14 14 13 13 13 13 12 12 12
6 6 5 3 2 1 2 3 3 2 3 4 6 6 6 4 3 3 3 3 8 5 5 4 1 2 2 2 2 0 1 3 3 3 2 5 6 2 2 4 5 6 5 5 5 5 7 7 8 9 9 8 8 8 10 12 13 17 17 18 18 18 18 17 16 15 15 16 17 16 16 16 15 15 15 15 15 14 14 14 14 14 14 13 13
3 6 5 4 2 1 2 3 4 4 3 4 5 5 5 4 5 3 4 6 5 9 10 8 1 3 2 1 2 1 2 3 2 1 2 4 4 2 5 3 5 4 5 5 6 6 5 7 7 8 7 7 6 8 8 9 11 15 17 17 17 18 19 18 18 17 15 15 16 16 16 16 16 16 15 15 15 14 14 14 14 14 14 14 15
4 4 6 5 4 3 3 3 4 4 4 4 4 6 7 5 4 4 4 3 5 6 2 11 11 4 3 2 1 2 1 4 3 1 2 3 3 5 6 6 4 2 3 4 5 5 5 4 5 7 7 5 5 7 8 8 13 16 17 18 19 18 19 19 19 18 17 14 15 16 16 16 16 16 16 15 14 15 14 15 15 15 15 15 15
3 5 6 7 6 6 5 4 4 5 4 4 4 4 7 7 6 4 6 6 4 2 3 5 12 5 5 2 2 1 3 1 2 2 2 3 5 6 5 4 4 2 1 1 2 1 2 4 4 4 5 5 4 4 7 9 9 10 13 17 18 18 18 19 19 19 18 16 15 15 16 16 16 16 16 15 15 15 14 15 15 16 15 15 14
4 5 3 8 7 6 5 5 5 4 4 4 3 3 6 8 8 7 5 5 4 5 5 6 6 8 5 5 3 1 3 2 2 2 2 2 2 3 3 4 4 3 3 1 2 2 4 3 3 3 3 4 4 4 3 4 6 8 7 10 16 17 17 18 18 18 18 18 17 17 16 15 16 16 15 15 15 15 16 15 15 15 15 14 14
5 5 5 5 7 8 7 5 5 5 4 4 4 4 5 6 6 7 7 6 6 5 6 3 6 6 6 4 3 3 4 2 2 0 1 1 2 2 2 3 3 1 1 3 3 4 4 5 3 2 4 3 4 3 2 3 5 8 12 12 15 18 16 17 17 17 17 18 18 18 18 17 17 17 16 16 15 15 15 15 15 14 14 14 15
4 5 6 5 5 7 6 5 5 5 5 5 5 5 4 4 6 6 5 5 7 6 5 4 3 3 6 4 3 2 4 4 3 3 1 1 3 1 0 0 1 1 2 4 5 3 5 4 5 3 0 3 3 2 2 2 3 5 5 12 13 14 13 15 15 14 15 16 17 17 18 18 18 18 17 17 16 14 14 14 14 15 15 15 15
5 5 5 6 4 6 7 6 5 6 5 5 5 6 7 6 6 6 6 5 5 5 3 4 3 5 6 5 3 3 4 6 3 4 0 1 2 2 2 1 1 3 3 4 4 6 2 3 2 2 4 1 4 3 1 5 1 3 5 8 8 9 8 11 12 11 12 13 14 15 16 16 18 18 18 19 17 15 14 15 15 16 15 15 15
5 5 5 6 6 4 6 7 7 6 6 5 6 6 6 6 6 7 6 7 5 5 7 5 4 6 7 6 3 3 3 1 0 2 4 1 5 2 1 1 3 2 2 4 4 5 2 3 9 5 2 6 1 1 8 3 4 5 5 8 7 8 8 9 9 9 9 10 11 13 14 15 15 16 16 17 17 16 14 13 13 14 15 15 15
5 5 5 5 5 5 4 6 6 6 5 6 6 7 6 6 5 5 6 7 6 6 6 6 4 5 7 7 6 5 4 2 1 1 3 3 3 2 2 2 2 3 3 2 2 3 3 4 4 1 2 3 2 4 5 2 4 6 9 8 6 5 5 6 7 7 8 8 9 9 11 11 12 13 14 15 15 16 15 13 13 13 14 14 15
5 5 5 5 5 5 4 4 5 7 8 6 6 6 6 6 5 6 5 5 5 6 7 7 6 5 7 8 6 3 2 4 4 3 4 3 4 2 3 1 1 4 5 3 0 3 4 3 1 3 2 3 5 4 2 4 4 7 5 7 8 7 6 5 6 6 6 7 7 8 9 9 10 11 12 13 14 15 14 12 12 12 12 12 13
5 5 5 6 5 5 4 4 4 6 7 7 5 6 6 7 7 7 6 7 7 7 7 8 7 6 5 7 5 3 5 3 3 4 3 5 2 3 4 4 3 3 3 0 1 0 2 2 1 0 2 1 3 2 2 5 4 4 2 7 7 6 3 4 4 4 4 5 6 7 7 8 9 10 11 12 12 11 11 11 10 10 11 11 12
4 5 5 5 4 4 4 4 4 5 7 7 7 7 6 7 7 8 8 7 7 8 8 7 7 7 6 7 5 6 5 4 3 4 3 2 2 4 2 3 4 4 1 1 1 1 1 0 1 1 1 3 2 2 1 6 4 4 6 5 6 5 3 1 1 3 2 2 2 2 3 4 5 6 5 5 5 4 5 5 7 8 10 11 13
4 2 4 5 5 4 4 4 5 5 4 6 6 6 6 6 7 8 6 6 7 7 7 7 8 8 7 8 7 5 6 6 5 3 3 3 3 3 3 2 2 2 2 1 0 2 0 2 2 2 4 3 4 1 1 5 5 8 3 4 4 6 6 2 2 1 1 1 1 1 1 2 3 3 3 3 3 3 4 5 5 6 8 10 11
2 3 4 4 4 5 5 6 6 5 2 2 4 5 4 5 5 6 7 5 6 8 8 7 8 8 8 8 8 6 4 4 3 3 3 3 3 3 2 2 3 2 3 3 2 2 1 0 2 3 2 1 2 1 2 5 4 4 5 6 4 4 4 4 3 4 4 4 4 5 5 5 6 5 6 5 4 4 5 5 6 7 8 10 11
3 4 3 4 5 5 5 6 6 5 3 3 3 4 5 5 5 6 6 5 7 8 8 7 8 8 7 9 8 7 5 3 4 5 4 3 4 4 4 4 3 3 2 2 3 2 2 2 2 1 1 1 0 3 4 4 1 3 6 5 5 4 5 7 7 6 6 6 6 7 9 9 9 9 9 9 10 11 12 12 12 12 12 12 11
4 4 3 4 5 7 5 6 5 5 5 4 5 4 4 5 6 7 8 9 8 7 7 8 8 8 7 8 8 7 6 5 5 4 4 3 4 4 4 4 4 3 2 1 0 1 2 2 2 1 2 1 1 1 3 2 4 6 6 6 6 5 7 8 8 8 8 8 8 8 8 9 9 10 10 10 11 12 13 13 13 12 13 12 12
4 5 5 6 5 4 5 5 5 5 5 6 6 6 7 7 7 7 8 8 9 10 9 9 9 8 8 9 10 7 6 6 5 5 5 4 5 4 5 5 3 2 1 0 1 2 2 3 3 2 2 2 2 1 2 1 2 3 5 6 6 9 9 7 9 8 7 7 7 8 9 9 9 10 11 11 12 13 13 13 13 13 13 12 11
3 4 5 6 5 5 5 5 5 5 6 6 6 7 7 7 6 7 9 10 12 12 10 9 8 9 9 11 10 8 6 6 6 5 5 5 4 5 5 5 4 2 2 2 3 2 5 4 5 2 0 2 3 1 1 3 3 3 3 6 9 10 6 5 6 7 6 7 7 8 9 10 10 12 13 12 13 13 13 13 13 12 12 12 11
3 4 5 7 7 5 7 7 6 6 6 7 6 6 7 8 8 9 9 11 12 11 10 10 10 10 10 11 12 10 7 7 7 6 5 5 5 5 4 3 4 4 3 3 3 2 1 3 5 3 2 3 2 1 1 1 0 2 3 7 10 7 7 6 5 5 7 8 7 8 10 11 12 12 12 13 13 12 12 11 11 12 12 12 11
2 3 6 5 5 6 6 6 7 6 7 8 8 7 6 8 10 8 10 11 12 12 10 11 11 9 10 11 12 11 9 9 8 7 6 6 5 5 2 3 4 4 4 2 1 1 2 6 5 5 4 5 3 4 2 2 2 3 1 4 7 8 7 7 5 3 6 7 8 9 10 12 12 11 12 12 12 12 12 11 11 11 11 10 10
3 4 5 4 6 7 5 6 7 6 7 9 8 8 9 9 9 9 9 10 10 11 12 13 13 12 12 12 12 11 8 9 8 7 7 7 6 6 7 5 4 1 4 5 2 1 2 2 1 1 2 3 4 3 1 1 2 1 1 5 3 1 8 7 6 4 6 8 10 11 11 11 11 11 11 11 11 11 11 11 11 11 11 11 11
4 1 4 5 5 4 6 8 8 8 7 2 4 8 8 8 9 11 9 9 10 9 10 12 12 12 11 11 11 10 9 8 8 7 7 7 6 6 6 3 7 5 3 4 3 3 2 4 1 2 1 1 2 3 2 2 1 0 2 3 4 3 6 8 5 6 6 9 9 11 12 11 11 11 11 11 10 10 11 11 11 11 10 10 10
4 4 3 4 4 5 5 6 7 6 4 4 5 6 8 8 10 10 9 8 7 9 10 10 9 10 12 11 10 12 10 9 7 7 7 7 5 4 6 7 2 2 5 4 4 2 2 2 2 2 0 1 0 2 3 1 1 2 4 6 4 4 5 3 6 4 8 11 10 11 11 11 11 13 12 11 11 10 10 10 10 10 9 9 8
3 3 3 5 5 6 6 7 8 8 8 7 5 7 9 8 10 9 8 10 10 11 10 9 9 8 7 11 7 2 3 5 3 3 2 2 4 5 6 5 4 4 5 5 4 4 2 2 2 1 1 1 0 1 0 3 2 2 6 4 4 4 4 5 3 3 3 2 2 5 4 8 11 13 13 11 11 10 10 10 10 9 10 8 8
4 4 5 6 6 8 8 8 9 10 10 10 9 8 3 8 12 11 10 10 12 10 10 10 6 5 5 6 4 3 6 5 5 3 5 9 5 2 5 5 5 6 5 4 4 3 3 3 2 3 4 1 1 2 1 1 3 6 4 5 4 4 3 3 4 5 5 5 4 2 4 8 10 9 11 11 11 11 10 10 9 10 10 9 8
4 6 6 7 7 7 9 8 8 8 8 8 8 8 8 8 7 9 11 10 12 10 10 8 7 8 9 7 4 4 6 7 7 7 7 6 7 3 3 4 5 5 5 5 4 3 2 3 4 3 2 3 2 2 2 4 4 6 4 2 3 3 3 5 5 5 4 4 5 3 3 6 8 8 10 9 10 11 11 9 9 11 10 8 7
3 5 6 7 8 8 8 8 9 8 7 7 6 8 9 8 6 8 6 8 11 9 10 13 9 4 1 3 7 5 5 8 9 9 7 7 7 5 3 3 4 5 5 5 4 3 2 2 3 2 4 4 5 5 4 5 5 3 2 2 0 1 2 4 5 5 4 4 4 6 5 2 7 6 4 4 5 6 7 8 7 11 10 7 7
2 3 5 6 7 7 7 7 7 7 6 5 9 15 12 8 7 7 7 8 9 9 11 9 8 7 6 2 1 9 10 11 13 12 11 11 10 5 3 3 4 5 5 4 4 4 5 4 4 5 4 6 5 5 5 3 3 3 3 3 1 1 3 6 3 4 5 5 6 7 6 3 4 2 4 6 5 5 4 3 3 7 6 6 7
2 3 4 5 5 6 6 7 7 5 5 5 12 13 14 13 7 6 7 8 10 8 8 11 8 9 8 7 5 10 10 9 12 17 15 14 14 13 14 13 9 4 4 5 4 3 5 5 2 2 4 5 5 5 5 4 3 3 3 2 1 3 2 1 1 1 5 4 5 4 6 4 5 5 6 3 3 4 4 4 6 9 5 5 6
3 2 3 4 4 5 4 5 5 5 5 8 14 14 14 14 8 6 7 7 7 8 10 11 8 10 9 8 7 6 9 8 8 13 15 17 17 15 15 14 14 14 10 5 3 3 2 1 6 6 7 7 6 5 4 3 2 3 4 2 3 2 3 3 2 2 2 2 4 3 5 6 4 5 5 4 4 3 4 6 6 6 3 3 4
0 2 3 3 3 4 4 5 4 4 4 8 13 14 14 14 10 6 7 7 8 11 9 8 10 11 10 9 8 7 9 15 12 11 12 13 14 18 15 14 15 15 13 13 8 4 3 7 8 7 5 6 7 4 3 1 1 3 3 5 3 3 2 1 3 3 2 3 4 3 4 5 6 5 4 4 5 3 4 4 6 5 4 2 5
2 3 4 4 4 4 4 4 4 3 4 8 13 14 14 14 12 7 3 2 4 5 8 9 12 12 11 9 9 9 8 9 9 10 9 13 11 10 10 9 8 10 13 14 13 14 11 7 8 9 6 6 7 4 4 4 3 3 2 3 2 3 2 1 3 5 3 4 4 2 2 5 5 5 4 6 4 5 1 6 7 6 4 3 7
1 4 3 2 2 2 3 3 3 3 3 9 12 14 14 14 14 8 6 3 6 5 5 5 6 11 11 10 9 10 10 8 8 11 6 7 10 11 11 11 9 8 8 9 8 6 7 7 8 9 7 7 6 5 4 4 4 3 1 1 1 1 3 3 2 5 6 7 6 3 2 4 3 4 4 5 4 6 4 4 7 7 5 5 9
3 2 4 1 1 1 2 2 2 3 3 8 12 13 13 14 13 7 8 7 5 6 7 7 2 4 10 9 8 9 10 8 6 6 4 8 11 12 12 11 11 9 9 6 10 12 10 8 8 9 7 7 8 6 4 3 3 3 3 3 2 2 3 5 4 4 5 5 6 3 2 3 3 4 4 4 5 7 7 7 6 7 5 10 11
5 2 3 1 1 0 1 1 2 2 3 6 10 11 12 14 10 6 7 8 7 7 6 5 5 3 6 7 7 8 9 8 6 6 8 15 10 12 12 12 10 10 8 6 11 14 15 15 15 14 13 13 11 11 11 11 9 4 1 3 3 5 5 2 6 5 4 3 4 5 1 3 5 4 5 3 5 6 6 4 3 4 11 12 12
2 2 2 1 1 1 1 2 3 2 4 5 9 9 11 13 10 6 5 6 6 6 6 6 6 5 8 14 12 9 8 7 8 9 9 12 11 11 12 12 11 10 7 5 6 7 10 11 11 11 12 12 12 11 12 12 13 9 6 6 3 4 3 5 3 5 2 4 5 6 2 3 5 4 4 4 4 4 4 7 7 6 9 10 8
1 1 3 3 2 1 1 1 2 2 3 3 8 8 9 11 9 5 4 4 6 5 5 6 6 6 8 10 11 8 8 7 10 9 9 11 10 11 10 10 10 9 6 6 7 7 5 5 3 4 3 2 4 5 5 11 11 9 5 4 5 6 5 5 4 2 3 3 5 5 3 3 6 5 5 4 3 3 4 7 7 7 7 5 6
Wind_Direction
157 160 162 173 163 173 215 205 171 196 172 213 177 175 202 205 172 124 139 137 105 123 140 121 102 155 159 158 142 105 104 165 199 135 135 144 157 170 168 173 176 172 186 177 166 183 179 164 187 166 175 195 172 169 186 185 176 185 188 179 178 176 180 187 177 173 229 262 156 180 137 215 351 239 224 312 321 329 331 329 341 349 354 355 353
161 166 153 160 153 163 184 234 200 185 193 130 222 143 192 141 114 92 86 103 115 79 109 132 114 148 215 134 132 139 133 170 220 148 140 145 146 164 175 175 180 184 182 194 196 156 200 159 187 181 169 182 186 175 195 208 194 189 196 197 192 194 198 198 199 218 197 200 180 229 221 230 211 162 219 242 251 292 308 320 316 327 323 328 329
137 59 128 150 161 160 191 213 169 232 57 267 143 177 88 56 41 92 102 132 121 151 137 117 134 174 60 36 60 126 166 194 216 153 143 142 139 163 173 181 178 176 188 190 198 191 184 194 238 180 190 198 180 188 204 206 206 196 195 202 200 201 208 208 207 215 202 216 231 226 228 216 224 254 239 255 236 248 272 290 304 316 315 308 309
62 124 18 162 148 180 161 113 206 199 150 259 182 101 129 123 143 117 101 358 54 133 124 160 152 123 152 136 94 360 239 182 184 185 130 140 153 167 159 180 180 180 189 190 202 196 191 193 205 195 217 222 184 205 199 202 209 203 200 204 203 204 212 212 213 219 214 220 236 236 232 232 242 241 244 245 254 265 264 262 273 283 292 302 302
25 116 239 142 132 96 138 201 160 268 135 186 30 65 57 234 143 110 126 134 149 28 192 155 145 151 163 146 156 173 244 244 55 353 128 151 159 155 157 172 184 191 190 195 196 203 215 209 203 207 199 217 223 226 242 183 203 208 203 205 206 208 211 214 213 221 216 222 230 238 236 239 244 240 251 252 255 257 261 264 267 267 272 273 285
351 56 297 175 107 134 240 181 150 290 59 355 239 65 27 1 346 127 162 134 162 144 240 186 154 174 172 151 172 165 181 154 180 83 126 155 156 163 164 167 171 179 195 197 197 204 207 216 213 213 223 214 220 224 226 227 223 229 211 206 208 209 210 212 213 218 221 224 230 233 235 242 247 248 247 252 258 265 257 258 268 270 272 274 278
274 312 4 36 149 146 164 19 7 10 108 234 15 65 15 355 350 41 61 31 308 114 128 241 198 192 155 164 147 169 176 169 155 182 162 167 172 186 158 169 162 174 188 181 201 204 206 209 221 219 223 228 214 221 226 229 230 234 221 202 210 209 210 212 215 218 222 226 228 230 235 239 243 249 252 253 254 259 259 260 266 267 273 278 277
323 339 31 310 170 185 138 163 171 108 109 116 86 84 21 16 346 327 21 217 181 121 67 304 289 201 139 169 149 157 186 171 165 194 169 155 200 192 178 166 166 181 177 176 183 201 207 211 220 230 227 227 220 221 227 231 231 239 217 208 212 211 211 213 215 218 221 225 225 228 232 238 243 245 247 252 257 255 257 262 263 266 268 271 275
341 26 9 307 310 195 158 164 159 64 63 45 64 47 51 146 335 309 21 307 252 69 119 235 225 198 157 193 156 183 189 183 164 192 188 165 184 186 173 196 182 184 175 171 172 188 204 210 217 220 222 219 221 223 224 227 233 232 232 216 211 214 214 215 216 219 220 222 225 226 229 233 237 240 241 248 254 256 256 258 268 272 274 273 274
29 288 280 339 332 347 327 135 103 60 33 42 68 56 30 354 322 332 323 300 355 271 274 297 270 208 194 198 154 199 208 160 178 183 184 192 190 181 191 186 195 182 195 157 168 186 189 205 212 218 220 218 218 220 222 224 226 229 227 226 213 214 217 217 218 220 221 222 224 225 228 230 233 235 239 244 247 250 252 253 266 269 270 276 278
151 312 304 269 348 35 23 1 116 99 52 8 86 91 27 345 330 338 342 321 308 279 240 282 291 290 235 180 182 204 194 197 189 192 206 203 187 195 187 187 200 182 193 180 184 182 179 182 198 208 219 222 220 219 219 221 225 226 228 223 225 222 218 220 219 220 222 223 224 226 226 228 230 233 237 240 244 249 252 255 266 267 266 268 269
166 204 303 303 300 84 61 29 15 74 82 2 62 24 17 352 347 336 318 304 302 283 276 266 275 267 262 199 223 181 206 188 221 201 203 293 227 188 207 177 189 197 188 191 183 197 171 174 184 198 209 213 219 220 219 220 223 227 227 226 228 223 223 222 219 220 222 222 224 226 227 229 231 234 236 239 242 246 247 251 256 270 268 267 275
178 185 198 219 225 122 101 81 62 81 104 92 91 114 176 186 295 323 318 314 288 273 256 239 257 294 261 227 220 182 216 205 234 230 179 208 226 209 238 200 180 198 195 197 190 191 191 168 182 192 207 208 210 216 216 217 220 223 227 228 227 226 224 225 219 218 220 219 221 224 227 228 232 235 237 240 244 245 246 248 251 258 271 269 265
177 184 190 189 194 173 148 143 119 103 111 115 124 150 168 147 90 5 316 308 292 283 247 227 266 231 250 327 334 323 271 216 225 226 224 95 279 250 226 234 196 203 199 179 191 198 195 181 177 196 203 212 190 200 213 220 224 224 226 229 230 229 228 227 227 223 220 214 218 223 225 228 232 234 237 240 244 246 247 247 249 252 264 272 266
208 165 174 161 165 236 194 138 135 135 145 153 161 144 138 130 135 141 320 316 325 313 346 301 317 275 191 79 248 38 313 317 264 216 258 184 183 210 253 233 234 186 187 189 203 204 199 182 194 193 199 208 174 186 197 206 214 219 223 227 230 232 232 230 230 229 227 214 215 220 224 227 230 234 237 240 242 245 246 245 247 250 255 259 269
219 202 151 156 163 194 217 171 146 157 154 165 176 150 136 137 173 148 120 335 339 313 342 325 301 32 322 234 201 173 205 231 215 282 249 266 200 221 213 226 252 216 206 202 203 197 204 193 197 187 202 199 201 172 189 197 211 215 216 220 226 228 231 231 231 231 231 222 215 220 224 227 231 235 239 240 242 243 244 244 245 247 250 254 260
246 253 165 156 178 199 194 168 155 163 162 167 189 167 140 139 157 158 172 171 157 237 289 237 273 185 221 349 329 304 257 158 150 271 257 250 239 235 230 201 203 221 158 342 16 34 303 214 200 200 183 196 202 193 182 194 201 208 214 218 220 223 225 229 230 231 231 231 227 222 221 225 230 236 239 242 243 243 245 248 249 251 252 254 258
239 245 229 151 169 198 199 166 163 166 168 165 178 131 143 147 164 169 182 165 161 177 238 268 279 295 238 195 172 196 348 332 184 255 258 217 277 289 356 21 54 42 343 360 280 274 241 268 212 192 189 182 202 205 227 196 179 193 201 215 217 219 221 226 228 230 231 233 233 234 232 227 231 238 241 245 251 253 256 255 257 257 257 256 260
208 238 268 188 174 185 189 174 169 176 168 156 171 176 165 161 152 156 183 162 160 198 230 261 319 292 265 234 248 226 207 220 261 328 264 312 315 318 327 19 357 2 275 246 227 242 255 229 214 200 205 195 200 201 143 240 209 167 193 202 208 217 219 223 226 228 231 232 234 236 237 238 241 242 242 247 246 244 243 245 247 249 250 251 256
215 231 231 252 181 178 177 174 169 177 173 178 177 184 178 155 160 170 171 173 165 195 215 223 223 279 294 263 226 245 278 280 263 268 154 251 294 238 147 347 255 271 276 290 279 215 219 251 216 169 80 220 221 158 263 227 213 169 189 190 201 210 214 222 225 228 232 235 238 239 241 242 243 246 245 245 246 240 238 240 243 244 246 248 251
223 221 228 234 238 181 179 179 182 181 186 179 178 173 184 180 167 171 183 194 179 191 201 228 217 263 289 288 280 243 232 231 242 241 131 259 285 271 295 328 295 275 259 258 280 292 251 220 218 117 174 45 23 360 313 244 242 123 156 160 180 200 213 225 231 233 236 240 243 245 247 248 249 250 250 250 250 247 239 235 237 239 243 247 250
212 226 227 231 235 232 183 190 187 180 186 195 178 176 184 190 182 187 183 189 192 194 207 213 219 255 269 268 240 256 280 314 310 49 8 337 253 248 207 271 299 288 278 282 274 277 311 2 47 17 14 78 60 149 281 229 145 109 128 150 173 191 200 213 223 233 245 252 257 258 260 259 258 258 257 258 258 258 254 250 244 241 243 246 249
196 208 216 230 240 230 226 198 188 185 190 198 196 182 185 189 181 178 183 187 189 202 216 224 228 254 261 255 242 220 211 210 217 146 147 216 254 223 244 218 198 305 286 280 282 316 14 37 85 51 86 147 178 204 214 136 87 123 153 176 177 191 207 227 236 238 240 245 251 261 265 268 269 268 267 265 264 264 264 259 255 249 245 246 249
200 197 202 218 222 235 223 219 193 178 197 203 196 184 178 181 177 186 191 194 192 200 211 223 225 235 257 258 243 256 243 189 197 214 201 220 236 193 206 220 299 232 277 297 9 30 33 41 155 157 109 153 210 212 209 116 105 137 162 186 184 193 200 224 231 244 253 256 260 260 262 264 264 265 266 268 270 270 270 267 265 261 258 256 254
210 202 200 203 209 221 223 221 209 182 183 194 199 192 182 186 185 187 191 193 199 209 212 219 224 227 249 253 240 236 244 238 201 205 217 222 250 262 199 173 180 305 265 201 305 157 117 209 288 103 157 328 267 223 138 124 145 180 245 177 185 184 197 234 242 249 251 259 261 261 263 266 266 267 267 266 266 266 268 272 271 271 271 272 270
236 213 202 209 210 213 212 228 239 207 188 191 195 198 191 192 190 193 196 199 195 209 224 218 228 239 248 261 227 220 236 240 223 204 226 256 258 253 246 180 180 214 257 75 314 325 330 37 283 219 243 245 257 175 150 125 126 199 227 141 176 161 127 118 248 207 220 219 234 264 270 275 286 293 315 334 349 336 321 308 301 298 294 288 286
230 251 206 206 217 214 211 222 236 242 207 189 191 186 185 195 194 196 198 197 204 207 224 227 229 236 244 251 246 228 214 219 223 233 222 233 234 247 251 272 181 186 207 188 204 263 59 175 183 262 220 214 181 155 222 143 160 204 199 117 104 126 122 139 157 144 126 84 80 32 7 327 313 319 330 324 331 326 313 311 304 295 296 293 293
223 229 222 217 219 221 220 224 226 228 140 163 176 168 167 195 205 195 204 196 208 217 223 230 239 239 243 249 242 243 235 227 234 221 213 231 253 247 244 246 264 231 180 166 188 222 168 97 251 235 229 126 343 135 236 124 145 228 139 115 130 116 117 114 101 83 72 78 76 74 58 50 33 28 16 6 353 351 358 360 9 16 16 23 22
257 239 218 200 211 207 207 212 218 221 212 175 196 184 179 200 209 203 205 206 217 224 220 224 237 241 241 246 238 230 235 223 217 217 210 208 217 237 229 230 213 250 254 180 168 167 226 228 227 285 353 37 46 356 20 43 16 270 120 137 126 115 115 108 97 83 76 67 67 70 71 62 58 54 50 46 47 46 46 45 42 39 39 39 38
261 255 231 227 210 204 201 203 193 197 213 196 196 206 192 202 210 210 211 211 216 227 227 229 235 238 242 242 237 228 220 221 225 210 205 213 210 226 232 228 237 220 242 267 169 191 168 232 196 219 314 347 298 99 342 184 226 269 119 136 125 123 125 107 101 91 88 82 73 69 70 67 65 62 61 60 59 59 56 55 54 49 48 45 40
243 257 250 244 228 202 202 204 198 209 208 209 199 203 204 208 212 219 220 212 211 219 223 224 234 236 236 244 238 230 217 221 225 212 198 202 214 218 228 231 241 211 247 180 215 245 209 181 228 193 204 255 329 96 216 159 313 284 127 132 125 132 121 102 105 105 96 86 75 73 72 72 63 64 64 63 66 65 60 58 54 51 49 46 41
255 251 252 243 229 220 216 209 202 208 218 209 206 210 204 215 206 215 219 216 215 218 221 220 227 229 229 236 237 229 218 217 220 209 194 199 202 205 221 214 215 191 180 215 224 185 202 171 193 167 46 5 352 216 147 156 182 313 99 130 126 137 117 117 108 116 114 106 90 77 78 71 64 69 72 72 72 69 66 62 59 58 55 53 49
312 305 285 274 263 229 209 221 212 203 203 208 208 216 216 221 217 226 227 218 218 219 219 223 226 230 232 231 234 227 212 214 215 199 197 202 196 205 227 215 193 189 187 204 212 230 19 30 39 94 234 167 185 263 174 221 119 197 212 122 148 158 136 127 129 136 133 121 114 101 89 83 79 79 82 83 77 75 73 69 65 61 57 53 49
307 294 305 319 316 306 290 245 216 216 214 209 194 193 212 223 224 217 226 222 220 224 219 225 229 231 231 233 233 233 215 213 214 204 196 206 189 193 248 242 203 198 188 179 229 71 28 17 308 350 356 349 139 278 138 150 209 337 256 162 163 165 134 129 138 164 160 151 140 116 100 96 92 88 91 88 88 86 82 77 70 65 57 50 45
342 340 315 314 316 313 300 289 276 234 216 222 212 192 200 211 223 224 221 228 228 224 224 224 226 230 232 228 228 228 219 211 212 204 195 201 182 170 190 231 274 227 101 85 102 98 152 194 56 63 21 336 19 279 186 115 23 243 341 61 24 37 132 133 150 146 189 175 144 122 117 111 105 104 101 97 92 87 82 76 71 65 59 52 47
334 51 294 312 294 299 307 312 307 306 296 349 225 227 226 205 206 221 226 225 233 238 236 234 231 234 239 230 226 230 221 216 207 197 195 198 186 192 144 128 209 224 125 132 137 139 195 147 180 105 209 173 196 303 92 45 213 69 342 88 55 354 105 147 147 153 190 182 149 135 131 124 118 118 114 105 97 91 86 84 80 73 66 59 53
9 346 347 346 335 329 321 301 293 293 288 250 179 207 227 229 237 227 220 227 229 242 242 245 254 251 245 238 217 225 224 223 203 196 195 188 199 188 140 161 134 112 112 109 106 116 132 114 123 117 224 245 283 260 124 155 248 62 44 46 32 4 42 62 133 142 161 181 151 150 144 135 129 126 124 118 109 100 100 98 92 86 77 67 56
358 352 348 351 343 331 328 331 332 329 326 317 296 178 191 210 229 250 247 232 224 228 241 245 241 246 284 284 278 323 3 350 321 322 349 277 190 171 136 135 127 109 106 106 106 100 115 137 145 200 93 274 92 284 213 95 57 41 51 28 25 24 34 17 7 165 125 87 102 147 140 133 139 136 136 133 122 117 110 103 99 91 83 72 59
353 359 3 358 350 338 346 0 357 352 347 339 337 344 290 222 208 212 217 230 245 239 231 233 244 252 252 247 242 173 147 154 129 220 313 311 308 208 140 127 126 123 129 141 123 131 150 143 193 192 154 197 152 205 177 146 97 82 89 43 21 352 23 22 5 24 33 27 2 2 149 151 156 147 143 143 139 128 112 102 95 89 79 70 56
13 1 6 358 352 0 7 2 355 347 340 338 348 349 344 332 289 221 211 216 234 228 239 244 239 240 238 213 203 201 148 137 138 135 145 207 247 247 137 126 122 122 117 115 121 138 145 180 205 176 159 139 203 178 55 70 81 56 53 64 33 322 349 52 33 39 11 33 350 23 282 112 143 138 143 145 153 139 119 98 90 84 79 71 62
32 14 8 360 357 5 5 1 351 344 338 347 354 347 327 314 311 302 262 229 227 203 218 230 213 158 9 283 198 199 134 124 132 141 146 152 182 216 112 118 122 127 127 116 129 150 166 211 209 188 173 143 136 116 88 55 73 96 82 64 341 260 45 76 33 34 13 18 353 18 357 47 127 160 161 162 188 175 142 127 90 77 74 70 62
20 33 25 355 1 3 3 358 355 347 346 345 340 330 314 292 298 289 281 243 218 209 213 209 171 166 148 181 157 115 110 112 114 109 93 76 70 72 112 138 144 127 123 140 155 174 182 182 204 202 153 128 130 115 113 109 91 71 71 60 351 354 28 91 33 29 356 33 18 13 338 345 51 59 146 180 204 191 161 93 85 86 73 68 51
69 54 31 3 7 14 359 356 1 355 348 344 338 328 322 299 280 273 264 256 230 214 221 223 188 152 147 143 153 120 109 99 100 106 100 92 89 80 71 61 50 79 139 145 168 198 172 184 121 48 107 118 96 91 85 87 57 55 84 29 22 38 37 25 149 282 4 37 23 19 339 329 49 22 353 48 96 90 100 112 114 86 84 64 46
68 72 55 26 8 10 360 356 9 0 347 350 341 332 324 308 292 264 250 248 250 219 213 211 172 155 149 150 157 147 123 127 124 108 105 107 104 98 88 75 63 52 53 77 77 69 21 110 101 81 82 83 72 60 61 58 37 48 29 34 68 29 44 348 32 83 300 40 45 24 344 341 20 29 359 27 46 61 95 138 119 112 101 51 29
94 64 60 38 20 9 349 347 6 9 351 347 339 330 327 319 316 287 242 249 235 227 211 183 153 152 152 157 152 146 135 129 119 118 118 119 118 115 101 81 61 47 37 34 42 62 68 86 101 82 76 99 84 62 38 52 25 77 27 57 15 41 22 19 35 97 7 23 56 21 5 346 349 9 355 358 15 34 112 142 158 157 223 50 322
292 93 64 54 50 7 339 340 350 11 356 347 337 332 333 329 335 344 286 252 257 199 175 169 155 152 150 145 152 139 128 122 120 118 130 130 134 107 81 70 58 36 30 23 27 51 65 82 93 95 65 72 92 73 24 7 47 60 42 70 28 39 359 335 61 92 58 24 37 341 15 337 338 357 6 340 354 346 47 160 181 216 259 336 308
96 86 88 83 49 336 337 344 335 357 354 353 343 337 340 340 339 8 8 37 78 42 80 113 150 144 139 139 140 135 131 132 133 134 164 155 111 101 92 78 67 54 37 20 16 48 70 75 80 83 79 70 74 65 32 25 33 40 2 8 332 298 258 279 109 97 63 24 11 26 30 300 340 10 346 328 342 350 341 195 191 212 236 274 317
104 116 101 98 245 330 13 341 329 334 334 3 350 343 345 348 344 27 26 23 33 84 87 79 32 132 128 131 133 126 116 99 39 97 171 121 106 104 101 93 83 71 59 40 49 65 74 81 84 89 89 91 95 90 77 55 35 358 343 332 290 290 321 281 128 80 83 36 8 27 3 319 351 19 322 322 8 339 315 314 205 211 261 320 341
138 141 122 169 148 302 16 354 347 326 318 1 353 351 346 355 351 30 33 41 33 33 40 66 68 56 88 105 107 110 106 100 81 56 108 115 107 106 105 100 93 88 79 65 58 71 82 89 98 107 111 105 93 81 62 52 40 7 37 87 18 347 329 17 95 106 81 40 0 357 323 5 354 347 326 334 356 307 311 5 29 327 350 347 333
100 96 150 169 63 24 10 342 358 330 312 4 359 357 352 357 350 30 28 46 51 29 38 40 54 58 87 96 107 103 94 96 88 81 127 123 116 113 110 107 104 100 100 101 90 75 80 91 96 98 96 93 89 72 63 53 44 37 56 54 341 3 356 46 41 107 100 53 8 333 37 23 341 342 341 332 331 323 351 17 354 339 333 325 351
61 204 234 156 132 160 77 59 339 327 322 342 354 352 2 359 1 346 40 56 58 39 35 47 42 54 55 53 64 88 107 100 90 83 104 122 116 117 116 111 112 114 122 130 115 112 112 98 99 103 83 97 96 88 75 71 62 54 48 49 18 33 17 7 13 31 114 38 351 343 58 347 6 331 20 348 352 310 21 358 345 333 315 320 2